Location: Mirueña
(40.7372°N, 5.0911°W)
Time: 20:54:31
(UTC+00:00)

Daily predictions for brighter satellites

Satellite Brightness Start Highest point End
(mag) Time Altitude Azimuth Time Altitude Azimuth Time Altitude Azimuth
NOSS 0 Rocket 4.0 17:40:13 10° SSW 17:46:21 81° ESE 17:52:31 10° NNE
SL-19 R/B 4.5 17:41:38 10° SSE 17:47:42 87° ENE 17:53:30 10° NNW
SKYMED 2 4.4 17:48:04 10° NE 17:51:56 31° E 17:55:47 10° SSE
ATLAS 2AS CENTAUR R/B 3.9 17:48:26 10° NNW 17:53:24 21° NNE 17:58:17 10° E
COSMOS 2428 3.5 17:48:11 10° SW 17:53:44 54° WNW 17:59:19 10° NNE
ACS3 Solar Sail 2.6 17:49:21 10° ESE 17:54:42 29° ENE 18:00:05 10° N
IGS 5A 3.4 17:51:32 10° SSE 17:55:27 55° ENE 17:59:24 10° N
USA 267 4.0 17:51:00 10° SSE 17:57:26 59° SW 18:03:53 10° NW
Cosmos 990 Rocket 4.0 17:54:18 10° NNW 17:59:33 77° ENE 18:04:47 10° SSE
Cosmos 1174 4.1 17:57:20 10° NNW 18:01:00 45° ENE 18:05:26 10° SE
Dummy Sat-02 4.5 17:58:09 10° S 18:01:46 79° E 18:05:24 10° N
AQUARIUS 4.1 17:57:58 10° SSE 18:02:22 79° ENE 18:06:49 10° N
Cosmos 1634 Rocket 4.3 17:57:08 10° N 18:03:28 77° W 18:09:43 10° S
DNEPR-1 R/B 4.1 18:00:28 10° NNW 18:04:53 37° NE 18:08:50 10° ESE
Delta 2 Rocket 4.2 18:05:54 10° SW 18:08:46 28° S 18:11:34 10° ESE
Okean 3 3.3 18:06:44 10° S 18:10:49 88° E 18:14:57 10° N
Meteor 1-31 Rocket 3.6 18:08:09 10° SE 18:11:02 24° ENE 18:13:57 10° NNE
Cosmos 1707 Rocket 3.5 18:07:10 10° S 18:11:35 81° E 18:16:02 10° N
Meteor 1-16 Rocket 4.2 18:06:11 10° N 18:11:42 87° E 18:17:22 10° S
Okean 2 3.2 18:10:43 10° S 18:14:38 76° E 18:18:35 10° N
EO 1 Delta rocket 4.1 18:11:21 10° NNE 18:15:48 44° E 18:20:20 10° SSE
Cosmos 2142 Rocket 4.5 18:12:17 10° N 18:18:32 78° E 18:24:50 10° S
CZ-4 R/B 4.4 18:14:50 10° SSE 18:18:44 55° ENE 18:22:40 10° N
Cosmos 1937 Rocket 4.0 18:16:01 10° N 18:20:43 35° ENE 18:25:25 10° SE
BREEZE-M DEB (TANK) 4.4 18:03:26 10° WSW 18:24:43 76° NNW 18:28:56 16° NE
Cosmos 1862 Rocket 3.8 18:25:11 10° SSW 18:29:30 71° W 18:33:55 10° N
Cosmos 1943 Rocket 2.1 18:23:55 10° NNW 18:29:36 84° ENE 18:35:12 10° SSE
RESURS DK-1 2.2 18:26:09 10° NNW 18:30:11 71° ENE 18:34:11 10° SSE
Cosmos 2237 Rocket 2.6 18:24:58 10° SSW 18:30:38 67° WNW 18:36:20 10° NNE
BlueWalker 3 3.7 18:30:55 10° NNW 18:33:17 16° NNE 18:33:53 15° NNE
CZ-4B R/B 3.7 18:33:16 10° SSE 18:36:47 48° ENE 18:40:13 10° N
ISS -2.2 18:34:21 10° W 18:37:15 27° NNW 18:39:01 17° NNE
NOAA 6 4.0 18:33:39 10° SSE 18:38:38 58° ENE 18:43:39 10° N
COSMO-SKYMED 1 2.7 18:35:47 10° N 18:40:08 76° WNW 18:44:28 10° SSW
Cosmos 2344 4.4 18:33:47 10° WSW 18:40:59 42° NW 18:47:52 10° NNE
Cosmos 2278 Rocket 2.9 18:38:25 10° NNW 18:43:57 57° WSW 18:49:26 10° S
YAOGAN 1 2.5 18:43:08 10° SSE 18:47:19 59° ENE 18:51:32 10° N
CZ-4C R/B 2.2 18:44:40 10° SW 18:48:50 58° NW 18:53:05 15° NNE
Nadezhda 4 Rocket 3.9 18:44:24 10° S 18:50:31 87° W 18:56:42 10° N
ATLAS 5 CENTAUR R/B 0.7 18:50:32 10° SW 18:53:40 80° NW 18:54:38 42° NNE
YAOGAN 11 4.1 18:51:31 21° NNE 18:54:10 55° E 18:58:23 10° S
Landsat 7 4.0 18:50:25 10° S 18:55:04 71° WSW 18:59:46 10° NNW
Cosmos 2195 Rocket 4.4 18:48:59 10° S 18:55:06 65° E 19:01:11 10° NNE
Meteor 1-24 Rocket 4.3 18:49:56 10° SSE 18:55:14 36° E 18:58:08 23° NE
Cosmos 1703 Rocket 3.4 18:53:52 10° S 18:58:17 72° E 19:02:12 13° NNE
SPOT 1/Viking Rocket 3.6 18:53:37 10° SSE 18:58:36 52° ENE 19:03:35 10° N
Resurs 1-3 3.6 18:58:56 10° SSE 19:03:07 53° ENE 19:07:19 10° N
Meteor 2-5 Rocket 4.1 19:00:29 10° SSE 19:05:49 42° E 19:07:38 33° NE
Cosmos 1703 3.3 19:05:08 10° SSW 19:08:37 65° W 19:10:32 25° N
Cosmos 841 Rocket 4.2 19:04:37 10° SW 19:09:45 54° WNW 19:14:55 10° N
Cosmos 1898 Rocket 4.1 19:07:34 10° NNW 19:12:46 57° WSW 19:17:57 10° S
Okean 1-7 4.4 19:09:37 10° SSW 19:13:38 38° WNW 19:17:38 10° N
Cosmos 1656 Rocket 3.8 19:08:46 10° NNW 19:14:05 48° ENE 19:14:50 45° E
Cosmos 1900 4.5 19:11:24 10° S 19:15:59 48° ESE 19:15:59 48° ESE
Cosmos 1814 Rocket 4.0 19:14:40 10° S 19:19:48 55° ESE 19:20:11 53° E
SL-16 R/B 2.1 19:14:11 10° SSW 19:19:50 90° SSE 19:22:50 30° NNE
Cosmos 1437 Rocket 3.7 19:20:24 10° S 19:22:39 35° S 19:22:39 35° S
CBERS 1 LM4 rocket 4.3 19:32:04 31° SSE 19:34:33 81° ENE 19:39:48 10° NNW
Cosmos 1818 3.4 19:31:00 10° NNW 19:36:30 82° ENE 19:37:01 72° ESE
Cosmos 1092 Rocket 4.1 19:30:22 10° SSW 19:36:30 76° W 19:42:45 10° N
ACS3 Solar Sail 2.9 19:31:51 10° S 19:37:57 47° W 19:44:07 10° NNW
Cosmos 2369 Rocket 3.0 19:35:12 10° NNW 19:38:45 36° N 19:38:45 36° N
ATLAS 2AS CENTAUR R/B 2.5 19:38:36 10° NNW 19:45:23 80° NE 19:46:36 62° SE
Cosmos 839 Rocket 4.1 19:44:19 10° SW 19:51:05 78° WNW 19:52:33 55° NNE
Cosmos 1867 4.3 19:51:23 10° SSW 19:55:00 43° S 19:55:00 43° S
Cosmos 2297 4.3 19:58:07 10° NNW 20:02:16 50° NNW 20:02:16 50° NNW
